Location: Newark
(54.2500°N, 9.1833°E)
Time: 20:14:33
(UTC+00:00)

Transit 4A - Pass Details

Date: 16 December 2019
Orbit: 872 x 973 km, 66.8° (Epoch: 28 January)

Event Time Altitude Azimuth Distance (km) Brightness Sun altitude
Rises 17:35:50 0° 259° (W) 3,572 12.5 -21.2°
Reaches altitude 10° 17:38:37 10° 268° (W) 2,614 11.4 -21.6°
Maximum altitude 17:44:07 35° 334° (NNW) 1,429 9.0 -22.4°
Enters shadow 17:46:55 23° 20° (NNE) 1,803 9.1 -22.8°
